Danbury, CT

9:49 AM EDT on August 28, 2016 (GMT -0400)
Danbury Municipal

Weather History for KDXR - November, 2013

Change the Weather History Date:

Tuesday, November 26, 2013

  Actual Average Record
Temperature  
Mean Temperature 34 °F -  
Max Temperature 37 °F 48 °F 64 °F (1979)
Min Temperature 30 °F 29 °F 10 °F (1993)
Degree Days  
Heating Degree Days 32    
Moisture  
Dew Point 22 °F    
Average Humidity 65    
Maximum Humidity 97    
Minimum Humidity 43    
Precipitation  
Precipitation 0.03 in - - ()
Sea Level Pressure  
Sea Level Pressure 30.21 in    
Wind  
Wind Speed 6 mph (SE)    
Max Wind Speed 9 mph    
Max Gust Speed 16 mph    
Visibility 7 miles    
Events Rain    
Averages and records for this station are not official NWS values.
T = Trace of Precipitation, MM = Missing Value Source: NWS Daily Summary

Daily Weather History Graph

Daily Weather History Graph

Search for Another Location

Airport or City:

Trip Planner

Search our weather history database for the weather conditions in past years. The results will help you decide how hot, cold, wet, or windy it might be!

Date:

Astronomy

Nov. 26, 2013 Rise Set
Actual Time 6:55 AM EST 4:27 PM EST
Civil Twilight 6:24 AM EST 4:57 PM EST
Nautical Twilight 5:50 AM EST 5:31 PM EST
Astronomical Twilight 5:17 AM EST 6:04 PM EST
Moon No Moon Rise 12:36 PM EST (11/26)
Length of Visible Light 10h 32m
Length of Day
9h 31m
Last Quarter, 41% of the Moon is Illuminated
Nov 26
Last Quarter
Dec 2
New
Dec 9
First Quarter
Dec 17
Full
Dec 25
Last Quarter

Hourly Weather History & Observations

Time (EST) Temp. Windchill Dew Point Humidity Pressure Visibility Wind Dir Wind Speed Gust Speed Precip Events Conditions
12:53 AM 30.9 °F 22.8 °F 10.9 °F 43% 30.31 in 10.0 mi SSW 9.2 mph 16.1 mph N/A   Mostly Cloudy
1:53 AM 30.9 °F 23.5 °F 10.9 °F 43% 30.32 in 10.0 mi SW 8.1 mph - N/A   Mostly Cloudy
2:53 AM 30.9 °F 24.3 °F 10.9 °F 43% 30.30 in 10.0 mi SW 6.9 mph - N/A   Clear
3:53 AM 30.9 °F 24.3 °F 12.0 °F 46% 30.29 in 10.0 mi SSW 6.9 mph - N/A   Overcast
4:53 AM 30.9 °F 26.2 °F 12.0 °F 46% 30.30 in 10.0 mi SW 4.6 mph - N/A   Overcast
5:53 AM 30.9 °F 22.8 °F 12.0 °F 46% 30.32 in 10.0 mi SSW 9.2 mph - N/A   Overcast
6:53 AM 32.0 °F 27.5 °F 12.9 °F 45% 30.32 in 10.0 mi SW 4.6 mph - N/A   Overcast
7:53 AM 32.0 °F 27.5 °F 14.0 °F 48% 30.33 in 10.0 mi WSW 4.6 mph - N/A   Overcast
8:53 AM 33.1 °F 27.7 °F 15.1 °F 48% 30.34 in 10.0 mi WSW 5.8 mph - N/A   Overcast
9:53 AM 34.0 °F 28.0 °F 15.1 °F 46% 30.33 in 10.0 mi WSW 6.9 mph - N/A   Overcast
10:53 AM 35.1 °F - 16.0 °F 46% 30.31 in 10.0 mi Calm Calm - N/A   Overcast
11:53 AM 37.0 °F 33.3 °F 18.0 °F 46% 30.29 in 10.0 mi SSE 4.6 mph - N/A   Overcast
12:53 PM 37.0 °F - 17.1 °F 44% 30.28 in 10.0 mi Calm Calm - N/A   Overcast
1:53 PM 37.9 °F 35.5 °F 17.1 °F 43% 30.26 in 10.0 mi SSE 3.5 mph - N/A   Overcast
2:53 PM 36.0 °F 33.3 °F 21.0 °F 55% 30.24 in 7.0 mi SE 3.5 mph - 0.00 in Rain Light Rain
3:53 PM 34.0 °F 29.8 °F 26.1 °F 73% 30.22 in 3.0 mi East 4.6 mph - 0.00 in Rain Light Rain
4:53 PM 34.0 °F 29.8 °F 28.0 °F 79% 30.21 in 6.0 mi ENE 4.6 mph - 0.01 in Rain Light Rain
5:53 PM 34.0 °F 29.8 °F 28.9 °F 82% 30.20 in 4.0 mi ENE 4.6 mph - 0.00 in Rain Light Rain
6:45 PM 33.8 °F 30.8 °F 30.2 °F 87% 30.18 in 5.0 mi ENE 3.5 mph - 0.01 in Rain Light Rain
6:53 PM 34.0 °F 29.8 °F 30.0 °F 85% 30.19 in 5.0 mi ENE 4.6 mph - 0.01 in Rain Light Rain
7:00 PM 33.8 °F 29.6 °F 30.2 °F 87% 30.17 in 5.0 mi NE 4.6 mph - 0.00 in Rain Light Rain
7:53 PM 34.0 °F 28.8 °F 30.9 °F 89% 30.15 in 4.0 mi ENE 5.8 mph - 0.00 in Rain Light Rain
8:53 PM 34.0 °F 28.8 °F 30.9 °F 89% 30.10 in 3.0 mi ENE 5.8 mph - 0.01 in Rain Light Rain
9:38 PM 33.8 °F 28.6 °F 32.0 °F 93% 30.05 in 2.5 mi ENE 5.8 mph - 0.00 in Rain Light Rain
9:45 PM 35.6 °F 30.7 °F 32.0 °F 87% 30.04 in 2.5 mi ENE 5.8 mph - 0.00 in Rain Light Rain
9:53 PM 35.1 °F 30.1 °F 32.0 °F 89% 30.04 in 2.5 mi ENE 5.8 mph - 0.00 in Rain Light Rain
10:53 PM 35.1 °F 31.0 °F 33.1 °F 92% 29.98 in 2.5 mi East 4.6 mph - N/A Rain Rain
11:53 PM 36.0 °F - 35.1 °F 97% 29.90 in 3.0 mi Calm Calm - N/A Rain Rain